Regional Weather Roundup
Issued by NWS

Home | Current Version | Previous Version | Graphics & Text | Print | Product List | Glossary On
Versions: 1 2 3 4 5 6 7 8 9 10 11 12 13 14 15 16 17 18 19 20 21 22 23 24 25 26 27 28 29 30 31 32 33 34 35 36 37 38 39 40 41 42 43 44 45 46 47 48 49 50
000
ASUS43 KFSD 301002
RWRSD

WEATHER ROUNDUP FOR SOUTH DAKOTA
NATIONAL WEATHER SERVICE SIOUX FALLS SD
500 AM CDT SUN AUG 30 2015

NOTE: "FAIR" INDICATES FEW OR NO CLOUDS BELOW 12,000 FEET WITH NO
SIGNIFICANT WEATHER AND/OR OBSTRUCTIONS TO VISIBILITY.


SDZ001>005-009-010-012>017-301100-
NORTHWEST AND NORTH CENTRAL SOUTH DAKOTA

CITY           SKY/WX    TMP DP  RH WIND       PRES   REMARKS
FAITH            N/A     61  49  64 S15       29.80
MOBRIDGE       MOCLDY    67  64  90 SE9       29.79S
$$

SDZ012>016-024>037-041>051-057-063-072>074-301100-
SOUTHWEST AND SOUTH CENTRAL SOUTH DAKOTA

CITY           SKY/WX    TMP DP  RH WIND       PRES   REMARKS
RAPID CTY ARPT PTCLDY    63  47  55 SE13      29.86F
PIERRE         CLEAR     67  57  70 VRB3      29.83S
CUSTER         MOCLDY    66  38  35 W6        30.05F
ELLSWORTH AFB  PTCLDY    69  46  43 S9        29.84F
PHILIP         PTCLDY    70  51  51 VRB3      29.83F
PINE RIDGE     CLEAR     66  44  45 S10       29.93F
WINNER         FAIR      71  58  63 S20       29.90S
$$

SDZ004>011-016>023-039-040-301100-
NORTHEAST SOUTH DAKOTA

CITY           SKY/WX    TMP DP  RH WIND       PRES   REMARKS
ABERDEEN       CLEAR     65  63  93 S9        29.85S
WATERTOWN      CLEAR     62  60  93 S12       29.93R FOG
BROOKINGS      CLOUDY    63  57  82 S12       29.98S
$$

SDZ017-020-022-023-036>040-048>070-301100-
SOUTHEAST SOUTH DAKOTA

CITY           SKY/WX    TMP DP  RH WIND       PRES   REMARKS
SIOUX FALLS    CLOUDY    62  60  93 S13       29.98F FOG
HURON          CLEAR     65  63  93 S10       29.89S
CHAMBERLAIN    CLEAR     66  61  83 S5        29.90S
MITCHELL       CLEAR     64  63  96 S9        29.92F
YANKTON        CLOUDY    64  63  94 S6        29.96S
$$

ABBREVIATIONS USED IN REMARKS
   TC - TEMPERATURE IN CELSIUS
  WCI - WIND CHILL INDEX
   HX - HEAT INDEX
  VSB - VISIBILITY



USA.gov is the U.S. government's official web portal to all federal, state and local government web resources and services.